ATLAS 5 CENTAUR DEB, 43984

Orbit data source: Space-Track

ATLAS 5 CENTAUR DEB, 43984 is space debris in HEO originally from a launch on Wed, 17 Sep 2014 UTC launched from the Air Force Eastern Test Range (AFETR). Debris objects in space refer to the collection of defunct objects orbiting the Earth. Examples of debris include non-operational satellites, rocket bodies, and fragments generated from explosions, collisions, or faulty payload assembly.

Loading next visibility...
Identifier
43984, 2014-055AP
Orbit
HEO
Country
Flag of USUS
Related business
Flag of USUnited Launch Alliance/Lockheed Martin (US)
Manufacturer
Unknown
Mission
Spacecraft
Bus & Motor
Unknown
Mass
Unknown
Launch date (UTC)
2014-09-17 (11 years ago)
Launch vehicle
Unknown
Launch site
Air Force Eastern Test Range (AFETR)
Object type
Payload
Rocket body
Debris
Shape & HBR
Unknown shape, 1.1 m
Radar Cross Section
Small (<0.1 m²)

Expand to show TLE details & history
Last TLE update: 1 day ago

TLE from 1 day ago
0 ATLAS 5 CENTAUR DEB
1 43984U 14055AP  25294.68864545 -.00000044  00000-0  00000-0 0  9990
2 43984  20.8439 118.5045 5088867 208.0957 111.2440  1.91690628 49854
Epoch: 2025-10-21T16:31Z
TLE epoch observation values (Epoch: 2025-10-21T16:31:38.966Z)
Latitude
-0.00008°
Longitude
-159.7853°
Altitude
30,393.706 km
Speed
2.668 km/s
True Right ascension
07h 54m 00s
True Declination
0° 00' 00"
Sunlit
Object was in daylight at epoch
Visualization orbit readout
Latitude
Unknown
Longitude
Unknown
Altitude
Unknown
Speed
Unknown
Apparent Right ascension
Unknown
Apparent Declination
Unknown
Sunlit
N/A
Visualization observer readout
Local Sidereal Time
18:19:51
Azimuth
Unknown
Elevation
Unknown
Doppler factor
Unknown
Orbital elements
Apogee altitude
34,928.886 km
Perigee altitude
7,066.496 km
Semi-major axis
27,375.828 km
Eccentricity
0.50889
Inclination
20.8439°
RAAN
118.5045°
Arg. of periapsis
208.0957°
True anomaly
151.93116°
Mean anomaly
111.244°
Eccentric anomaly
132.67914°
Mean motion
0.47917 °/min
Orbital period
751.29 mins
BSTAR
0
Loading maneuver chart data...
Computing Atmospheric mass density...

Documentation

Showing up to 5 results
|